Regional Weather Roundup
Issued by NWS

Home | Current Version | Previous Version | Graphics & Text | Print | Product List | Glossary On
Versions: 1 2 3 4 5 6 7 8 9 10 11 12 13 14 15 16 17 18 19 20 21 22 23 24 25 26 27 28 29 30 31 32 33 34 35 36 37 38 39 40 41 42 43 44 45 46 47 48 49 50
000
ASUS44 KMEG 271910
RWRTN
TENNESSEE HOURLY STATE WEATHER ROUNDUP
NATIONAL WEATHER SERVICE MEMPHIS TN
200 PM CDT MON JUL 27 2015

TNZ002-004-019-021-049-052-054-088>092-272000-
WEST TENNESSEE

CITY           SKY/WX    TMP DP  RH WIND       PRES   REMARKS
MEMPHIS INTL   MOSUNNY   95  73  48 VRB3      29.96F HX 104
NWS MEMPHIS      N/A     94 N/A N/A MISG        N/A
JACKSON        SUNNY     95  72  47 VRB3      29.97F HX 103
DYERSBURG        N/A    N/A N/A N/A MISG        N/A
LEXINGTON      PTSUNNY   93  75  55 VRB3      29.97F HX 104
$$

TNZ008-025-027-028-033-062-065-066-272000-
NORTH MIDDLE TENNESSEE

CITY           SKY/WX    TMP DP  RH WIND       PRES   REMARKS
NASHVILLE      MOSUNNY   93  73  52 VRB7      29.98F HX 102
CLARKSVILLE    MOSUNNY   91  74  57 W5        29.97F HX 100
SMYRNA         MOSUNNY   97  73  45 SW7       29.98F HX 106
COOKEVILLE     SUNNY     93  73  52 SW3       30.00F HX 102
CROSSVILLE     MOSUNNY   86  68  54 W5        30.06F
$$

TNZ061-075-076-078-094-096-097-272000-
SOUTH MIDDLE TENNESSEE

CITY           SKY/WX    TMP DP  RH WIND       PRES   REMARKS
FAYETTEVILLE   SUNNY     90  70  51 W6        30.01F HX  95
TULLAHOMA      SUNNY     91  70  49 CALM      30.02F HX  97
WINCHESTER     SUNNY     91  70  49 CALM      30.01F HX  97
MCMINNVILLE    SUNNY     91  73  55 W3        30.01F HX 100
COLUMBIA       MOSUNNY   93  73  52 CALM      29.97F HX 102
SHELBYVILLE    MOSUNNY   93  75  55 CALM      30.00  HX 104
$$

TNZ017-018-042-046-047-272000-
NORTHEAST TENNESSEE

CITY           SKY/WX    TMP DP  RH WIND       PRES   REMARKS
TRI CITIES     PTSUNNY   87  68  52 VRB3      30.03F HX  90
ELIZABETHTON   PTCLDY    84  68  58 CALM      30.03F
$$

TNZ012-013-036-069-073-074-272000-
CENTRAL EAST TENNESSEE

CITY           SKY/WX    TMP DP  RH WIND       PRES   REMARKS
KNOXVILLE      PTSUNNY   90  70  51 NW6       29.99F HX  95
OAK RIDGE      PTSUNNY   89  72  56 CALM      30.01F HX  96
GATLINBURG       N/A     90  70  51 VRB3      29.99F HX  95
MORRISTOWN     CLEAR     90  70  51 W6        30.03F HX  95
$$

TNZ083-085-099-272000-
SOUTHEAST TENNESSEE

CITY           SKY/WX    TMP DP  RH WIND       PRES   REMARKS
CHATTANOOGA    PTSUNNY   91  71  51 NE5       29.98F HX  97
$$

SKY/WX REPORTED AS FAIR MEANS FEW OR NO CLOUDS BELOW
12 THOUSAND FEET.




USA.gov is the U.S. government's official web portal to all federal, state and local government web resources and services.